KD2BVA Weather Reports


Display with metric or nautical units.
time (UTC)temp
F
wind
direction
speed
MPH
gust
MPH
rain 1hr
in
rain 24hr
in
rain mn
in
humidity
%
barometer
mb
20260901003525 67 264 0.0 0.0 0.00 0.01 0.01 91 1002.8
20260901003033 67 264 0.0 0.0 0.00 0.01 0.01 90 1002.8
20260901002534 68 264 0.0 0.0 0.00 0.01 0.01 90 1002.8
20260901002023 68 264 0.0 0.0 0.00 0.01 0.01 90 1002.7
20260901001531 68 264 0.0 0.0 0.00 0.01 0.01 90 1002.7
20260901001041 68 264 0.0 0.0 0.00 0.01 0.01 89 1002.7
20260901000524 68 264 0.0 0.0 0.00 0.01 0.01 89 1002.9
20260901000027 69 264 0.0 0.0 0.00 0.01 0.01 89 1002.9
20260831235527 69 264 0.0 0.0 0.00 0.01 0.01 88 1003.0
20260831235037 69 264 0.0 0.0 0.00 0.01 0.01 88 1003.0
20260831234545 69 264 0.0 0.0 0.00 0.01 0.01 87 1002.9
20260831234033 69 264 0.0 1.0 0.00 0.01 0.01 87 1003.0
20260831233535 70 264 0.0 1.0 0.00 0.01 0.01 87 1003.0
20260831233023 70 268 0.0 2.0 0.00 0.01 0.01 86 1003.1
20260831232532 70 313 0.0 2.0 0.00 0.01 0.01 86 1003.1
20260831232033 70 298 0.0 2.0 0.00 0.01 0.01 86 1003.1
20260831231521 71 292 1.0 2.0 0.00 0.01 0.01 86 1003.0
20260831231021 71 74 0.0 5.0 0.00 0.01 0.01 86 1003.0
20260831230532 71 306 1.0 5.0 0.00 0.01 0.01 86 1003.0
20260831230038 71 298 1.0 3.0 0.00 0.01 0.01 86 1003.0
20260831225549 71 271 1.0 3.0 0.00 0.01 0.01 85 1003.1
20260831225029 72 289 0.0 1.0 0.00 0.01 0.01 85 1003.1
20260831224537 72 288 0.0 1.0 0.00 0.01 0.01 85 1003.1
20260831224043 72 282 0.0 0.0 0.00 0.01 0.01 85 1003.1
20260831223543 72 272 0.0 0.0 0.00 0.01 0.01 84 1003.2
20260831223029 73 271 0.0 1.0 0.00 0.01 0.01 83 1003.3
20260831222539 73 271 0.0 1.0 0.00 0.01 0.01 82 1003.3
20260831222019 74 283 0.0 0.0 0.00 0.01 0.01 84 1003.3
20260831221529 74 283 0.0 0.0 0.00 0.01 0.01 83 1003.2
20260831221039 75 283 0.0 0.0 0.00 0.01 0.01 82 1003.2
20260831220541 75 283 0.0 0.0 0.00 0.01 0.01 81 1003.2
20260831220047 75 283 0.0 0.0 0.00 0.01 0.01 81 1003.2
20260831215555 76 283 0.0 0.0 0.00 0.01 0.01 81 1003.2
20260831215022 76 283 0.0 0.0 0.00 0.01 0.01 82 1003.2
20260831214523 76 283 0.0 0.0 0.00 0.01 0.01 82 1003.2
20260831214032 76 283 0.0 0.0 0.00 0.01 0.01 81 1003.2
20260831213524 76 283 0.0 1.0 0.00 0.01 0.01 81 1003.2
20260831213020 77 283 0.0 1.0 0.00 0.01 0.01 80 1003.2
20260831212525 77 283 0.0 0.0 0.00 0.01 0.01 80 1003.2
20260831212034 77 283 0.0 0.0 0.00 0.01 0.01 77 1003.1
20260831211544 77 283 0.0 1.0 0.00 0.01 0.01 78 1003.2
20260831211024 77 283 0.0 1.0 0.00 0.01 0.01 75 1003.2
20260831210537 77 283 0.0 1.0 0.00 0.01 0.01 80 1003.2
20260831210033 77 283 0.0 1.0 0.00 0.01 0.01 80 1003.3
20260831205519 76 283 0.0 1.0 0.00 0.01 0.01 76 1003.3
20260831205029 76 286 1.0 1.0 0.00 0.01 0.01 75 1003.4
20260831204529 76 269 0.0 1.0 0.00 0.01 0.01 80 1003.3
20260831204038 76 269 0.0 1.0 0.00 0.01 0.01 79 1003.3
20260831203528 76 8 0.0 1.0 0.00 0.01 0.01 80 1003.2
20260831203025 76 9 0.0 1.0 0.00 0.01 0.01 78 1003.4
20260831202535 76 262 0.0 0.0 0.00 0.01 0.01 79 1003.5
20260831202043 76 261 0.0 0.0 0.00 0.01 0.01 79 1003.5
20260831201522 76 264 0.0 0.0 0.00 0.01 0.01 78 1003.4
20260831201031 76 264 0.0 0.0 0.00 0.01 0.01 80 1003.4
20260831200523 76 264 0.0 0.0 0.00 0.01 0.01 80 1003.5
20260831200047 76 264 0.0 0.0 0.00 0.01 0.01 76 1003.6
20260831195527 76 264 0.0 0.0 0.00 0.01 0.01 79 1003.6
20260831195036 76 264 0.0 0.0 0.00 0.01 0.01 77 1003.7
20260831194546 76 264 0.0 1.0 0.00 0.01 0.01 75 1003.8
20260831194045 76 264 0.0 1.0 0.00 0.01 0.01 75 1003.8
20260831193555 76 264 0.0 0.0 0.00 0.01 0.01 79 1003.9
20260831193020 76 264 0.0 0.0 0.00 0.01 0.01 77 1004.0
20260831192531 77 264 0.0 0.0 0.00 0.01 0.01 77 1004.0
20260831192032 77 264 0.0 0.0 0.00 0.01 0.01 75 1004.0
20260831191521 78 264 0.0 0.0 0.00 0.01 0.01 75 1004.0
20260831191033 78 264 0.0 0.0 0.00 0.01 0.01 72 1004.1
20260831190535 78 264 0.0 1.0 0.00 0.01 0.01 72 1004.1
20260831190023 79 264 0.0 2.0 0.00 0.01 0.01 69 1004.2
20260831185523 80 259 0.0 4.0 0.00 0.01 0.01 65 1004.2
20260831185032 80 25 0.0 3.0 0.00 0.01 0.01 66 1004.2
20260831184521 80 99 1.0 3.0 0.00 0.01 0.01 66 1004.2
20260831184042 80 75 0.0 3.0 0.00 0.01 0.01 71 1004.2
20260831183524 79 77 1.0 3.0 0.00 0.01 0.01 66 1004.1
20260831183032 79 191 1.0 2.0 0.00 0.01 0.01 69 1004.2
20260831182542 78 285 0.0 3.0 0.00 0.01 0.01 70 1004.3
20260831182038 78 276 1.0 3.0 0.00 0.01 0.01 69 1004.5
20260831181528 78 303 0.0 2.0 0.00 0.01 0.01 73 1004.6
20260831181029 78 19 0.0 2.0 0.00 0.01 0.01 72 1004.7
20260831180537 77 30 1.0 2.0 0.00 0.01 0.01 71 1004.9
20260831180025 78 285 0.0 2.0 0.00 0.01 0.01 70 1004.8
20260831175526 78 244 0.0 2.0 0.00 0.01 0.01 69 1005.0
20260831175034 79 44 0.0 3.0 0.00 0.01 0.01 67 1005.0
20260831174544 79 37 0.0 3.0 0.00 0.01 0.01 73 1004.9
20260831174029 78 7 1.0 3.0 0.00 0.01 0.01 72 1004.9
20260831173539 77 34 0.0 3.0 0.00 0.01 0.01 74 1005.0
20260831173034 77 60 1.0 3.0 0.00 0.01 0.01 75 1005.0
20260831172523 77 353 0.0 2.0 0.00 0.01 0.01 77 1004.9
20260831172032 77 283 0.0 1.0 0.00 0.01 0.01 75 1004.9
20260831171533 76 330 0.0 5.0 0.00 0.01 0.01 74 1005.1
20260831171022 76 288 1.0 5.0 0.00 0.01 0.01 74 1005.3
20260831170524 77 285 1.0 2.0 0.00 0.01 0.01 74 1005.2
20260831170032 76 349 0.0 2.0 0.00 0.01 0.01 77 1005.3
20260831165521 76 345 1.0 2.0 0.00 0.01 0.01 74 1005.4
20260831165021 76 318 1.0 4.0 0.00 0.01 0.01 73 1005.4
20260831164531 76 217 2.0 4.0 0.00 0.01 0.01 72 1005.5
20260831164040 76 335 1.0 4.0 0.00 0.01 0.01 77 1005.6
20260831163523 76 221 0.0 2.0 0.00 0.01 0.01 75 1005.6
20260831163050 76 38 0.0 2.0 0.00 0.01 0.01 75 1005.7
20260831162556 76 68 0.0 2.0 0.00 0.01 0.01 79 1005.7
20260831162024 75 273 0.0 2.0 0.00 0.01 0.01 77 1005.7
20260831161533 75 273 0.0 2.0 0.00 0.01 0.01 77 1005.8
20260831161026 75 275 1.0 2.0 0.00 0.01 0.01 74 1005.9
20260831160538 75 12 0.0 3.0 0.00 0.01 0.01 77 1005.9
20260831160044 75 276 0.0 1.0 0.00 0.01 0.01 77 1005.9
20260831155533 75 277 0.0 3.0 0.00 0.01 0.01 78 1006.0
20260831155033 75 279 0.0 3.0 0.00 0.01 0.01 77 1006.1
20260831154522 75 302 1.0 2.0 0.00 0.01 0.01 77 1006.1
20260831154021 74 284 0.0 1.0 0.00 0.01 0.01 79 1006.2
20260831153533 75 244 0.0 1.0 0.00 0.01 0.01 77 1006.1
20260831153020 74 202 0.0 1.0 0.00 0.01 0.01 77 1006.2
20260831152521 74 262 0.0 2.0 0.00 0.01 0.01 80 1006.2
20260831152030 73 262 0.0 3.0 0.00 0.01 0.01 80 1006.2
20260831151537 73 280 0.0 3.0 0.00 0.01 0.01 83 1006.2
20260831151047 73 293 0.0 1.0 0.00 0.01 0.01 82 1006.3
20260831150530 72 290 0.0 2.0 0.00 0.01 0.01 83 1006.2
20260831150038 72 270 0.0 2.0 0.00 0.01 0.01 84 1006.1
20260831145548 72 282 0.0 1.0 0.00 0.01 0.01 84 1006.1
20260831145051 72 282 0.0 0.0 0.00 0.01 0.01 86 1006.1
20260831144529 71 282 0.0 1.0 0.00 0.01 0.01 89 1006.1
20260831144039 70 281 0.0 1.0 0.00 0.01 0.01 91 1006.1
20260831143522 69 250 0.0 1.0 0.00 0.01 0.01 92 1006.3
20260831143030 69 233 0.0 2.0 0.00 0.01 0.01 93 1006.1
20260831142520 68 211 1.0 2.0 0.00 0.01 0.01 94 1006.2
20260831142021 68 263 0.0 2.0 0.00 0.01 0.01 96 1006.4
20260831141530 67 255 0.0 3.0 0.00 0.01 0.01 98 1006.4
20260831141040 67 256 0.0 1.0 0.00 0.01 0.01 99 1006.4
20260831140523 66 250 0.0 2.0 0.00 0.01 0.01 99 1006.3
20260831140050 66 254 1.0 4.0 0.01 0.01 0.01 100 1006.3
20260831135557 65 211 1.0 4.0 0.01 0.01 0.01 100 1006.3
20260831135023 65 261 0.0 1.0 0.01 0.01 0.01 100 1006.3
20260831134533 65 253 0.0 2.0 0.01 0.01 0.01 100 1006.3
20260831134031 64 254 0.0 2.0 0.01 0.01 0.01 100 1006.2
20260831133539 64 242 0.0 1.0 0.01 0.01 0.01 100 1006.2
20260831133048 64 264 0.0 1.0 0.01 0.01 0.01 100 1006.2
20260831132556 64 264 0.0 1.0 0.01 0.01 0.01 100 1006.3
20260831132107 64 6 0.0 1.0 0.01 0.01 0.01 100 1006.3
20260831131544 63 255 0.0 1.0 0.01 0.01 0.01 100 1006.2
20260831131104 63 255 0.0 2.0 0.01 0.01 0.01 100 1006.3
20260831130524 63 254 0.0 2.0 0.01 0.01 0.01 100 1006.4
20260831130032 63 271 0.0 1.0 0.00 0.00 0.00 100 1006.5
20260831125532 63 330 0.0 1.0 0.00 0.00 0.00 100 1006.5
20260831125042 62 331 0.0 1.0 0.00 0.00 0.00 100 1006.6
20260831124528 62 319 0.0 1.0 0.00 0.00 0.00 100 1006.5
20260831124029 62 134 0.0 1.0 0.00 0.00 0.00 100 1006.4
20260831123537 61 78 0.0 1.0 0.00 0.00 0.00 100 1006.3
20260831123045 61 148 0.0 0.0 0.00 0.00 0.00 100 1006.4
20260831122525 60 148 0.0 0.0 0.00 0.00 0.00 100 1006.3
20260831122032 59 148 0.0 0.0 0.00 0.00 0.00 100 1006.4
20260831121541 59 148 0.0 0.0 0.00 0.00 0.00 100 1006.4
20260831121022 58 148 0.0 0.0 0.00 0.00 0.00 99 1006.3
20260831120533 58 148 0.0 0.0 0.00 0.00 0.00 99 1006.3
20260831120040 58 148 0.0 0.0 0.00 0.00 0.00 99 1006.2
20260831115541 57 148 0.0 0.0 0.00 0.00 0.00 99 1006.2
20260831115028 57 148 0.0 0.0 0.00 0.00 0.00 99 1006.3
20260831114528 57 148 0.0 0.0 0.00 0.00 0.00 99 1006.3
20260831114038 57 148 0.0 0.0 0.00 0.00 0.00 99 1006.3
20260831113530 57 148 0.0 0.0 0.00 0.00 0.00 99 1006.2
20260831113025 57 148 0.0 0.0 0.00 0.00 0.00 99 1006.3
20260831112535 57 148 0.0 0.0 0.00 0.00 0.00 99 1006.3
20260831112043 57 148 0.0 0.0 0.00 0.00 0.00 99 1006.2
20260831111547 57 148 0.0 0.0 0.00 0.00 0.00 99 1006.2
20260831111034 57 148 0.0 0.0 0.00 0.00 0.00 99 1006.1
20260831110537 56 148 0.0 0.0 0.00 0.00 0.00 99 1006.0
20260831110025 56 148 0.0 0.0 0.00 0.00 0.00 99 1005.9
20260831105535 56 148 0.0 0.0 0.00 0.00 0.00 99 1005.8
20260831105035 56 148 0.0 0.0 0.00 0.00 0.00 99 1005.7
20260831104525 56 148 0.0 0.0 0.00 0.00 0.00 99 1005.7
20260831104025 56 148 0.0 0.0 0.00 0.00 0.00 99 1005.6
20260831103537 56 148 0.0 0.0 0.00 0.00 0.00 99 1005.5
20260831103044 56 148 0.0 0.0 0.00 0.00 0.00 99 1005.5
20260831102532 56 148 0.0 0.0 0.00 0.00 0.00 99 1005.5
20260831102043 56 148 0.0 0.0 0.00 0.00 0.00 99 1005.5
20260831101522 56 148 0.0 0.0 0.00 0.00 0.00 99 1005.5
20260831101032 56 148 0.0 0.0 0.00 0.00 0.00 99 1005.6
20260831100535 55 148 0.0 0.0 0.00 0.00 0.00 99 1005.6
20260831100042 55 148 0.0 0.0 0.00 0.00 0.00 99 1005.5
20260831095545 55 148 0.0 0.0 0.00 0.00 0.00 99 1005.4
20260831095053 55 148 0.0 0.0 0.00 0.00 0.00 99 1005.4
20260831094521 55 148 0.0 0.0 0.00 0.00 0.00 99 1005.5
20260831094021 55 148 0.0 0.0 0.00 0.00 0.00 99 1005.5
20260831093532 55 148 0.0 0.0 0.00 0.00 0.00 99 1005.3
20260831093039 55 148 0.0 0.0 0.00 0.00 0.00 99 1005.2
20260831092548 55 148 0.0 0.0 0.00 0.00 0.00 99 1005.3
20260831092100 55 148 0.0 0.0 0.00 0.00 0.00 99 1005.2
20260831091537 55 148 0.0 0.0 0.00 0.00 0.00 99 1005.3
20260831091038 56 148 0.0 0.0 0.00 0.00 0.00 99 1005.2
20260831090521 56 148 0.0 0.0 0.00 0.00 0.00 98 1005.3
20260831090029 56 148 0.0 0.0 0.00 0.00 0.00 98 1005.3
20260831085538 56 148 0.0 0.0 0.00 0.00 0.00 98 1005.3
20260831085045 56 148 0.0 0.0 0.00 0.00 0.00 98 1005.2
20260831084523 56 148 0.0 0.0 0.00 0.00 0.00 98 1005.1
20260831084033 56 148 0.0 0.0 0.00 0.00 0.00 98 1005.1
20260831083545 56 148 0.0 0.0 0.00 0.00 0.00 98 1005.0
20260831083042 56 148 0.0 0.0 0.00 0.00 0.00 98 1005.0
20260831082550 56 148 0.0 0.0 0.00 0.00 0.00 98 1005.0
20260831082038 56 148 0.0 0.0 0.00 0.00 0.00 98 1005.0
20260831081547 56 148 0.0 0.0 0.00 0.00 0.00 98 1004.9
20260831081028 56 148 0.0 0.0 0.00 0.00 0.00 98 1004.8
20260831080540 57 148 0.0 0.0 0.00 0.00 0.00 98 1004.7
20260831080049 57 148 0.0 0.0 0.00 0.00 0.00 98 1004.7
20260831075527 57 148 0.0 0.0 0.00 0.00 0.00 98 1004.7
20260831075036 58 148 0.0 0.0 0.00 0.00 0.00 98 1004.6
20260831074546 58 148 0.0 0.0 0.00 0.00 0.00 99 1004.6
20260831074021 58 148 0.0 0.0 0.00 0.00 0.00 98 1004.6
20260831073526 58 148 0.0 0.0 0.00 0.00 0.00 98 1004.5
20260831073033 58 148 0.0 0.0 0.00 0.00 0.00 98 1004.6
20260831072542 58 148 0.0 0.0 0.00 0.00 0.00 98 1004.5
20260831072020 58 148 0.0 0.0 0.00 0.00 0.00 98 1004.5
20260831071529 58 148 0.0 0.0 0.00 0.00 0.00 98 1004.5
20260831071039 58 148 0.0 0.0 0.00 0.00 0.00 98 1004.5
20260831070528 58 148 0.0 0.0 0.00 0.00 0.00 98 1004.6
20260831070024 58 148 0.0 0.0 0.00 0.00 0.00 98 1004.6
20260831065534 58 148 0.0 0.0 0.00 0.00 0.00 98 1004.6
20260831065043 58 148 0.0 0.0 0.00 0.00 0.00 98 1004.6
20260831064524 58 148 0.0 0.0 0.00 0.00 0.00 98 1004.5
20260831064033 58 148 0.0 0.0 0.00 0.00 0.00 98 1004.5
20260831063545 58 148 0.0 0.0 0.00 0.00 0.00 98 1004.4
20260831063051 58 148 0.0 0.0 0.00 0.00 0.00 98 1004.5
20260831062554 58 148 0.0 0.0 0.00 0.00 0.00 98 1004.4
20260831062105 59 148 0.0 0.0 0.00 0.00 0.00 98 1004.4
20260831061524 59 148 0.0 0.0 0.00 0.00 0.00 98 1004.3
20260831061033 59 148 0.0 0.0 0.00 0.00 0.00 98 1004.4
20260831060544 59 148 0.0 0.0 0.00 0.00 0.00 98 1004.4
20260831060023 59 148 0.0 0.0 0.00 0.00 0.00 98 1004.4
20260831055532 59 148 0.0 0.0 0.00 0.00 0.00 98 1004.5
20260831055030 59 148 0.0 0.0 0.00 0.00 0.00 98 1004.4
20260831054536 59 148 0.0 0.0 0.00 0.00 0.00 98 1004.5
20260831054024 59 148 0.0 0.0 0.00 0.00 0.00 98 1004.5
20260831053553 59 148 0.0 0.0 0.00 0.00 0.00 98 1004.5
20260831053101 59 148 0.0 0.0 0.00 0.00 0.00 97 1004.5
20260831052520 59 148 0.0 0.0 0.00 0.00 0.00 97 1004.6
20260831052042 59 148 0.0 0.0 0.00 0.00 0.00 97 1004.6
20260831051530 59 148 0.0 0.0 0.00 0.00 0.00 97 1004.5
20260831051040 60 148 0.0 0.0 0.00 0.00 0.00 97 1004.6
20260831050547 60 148 0.0 0.0 0.00 0.00 0.00 97 1004.5
20260831050053 60 148 0.0 0.0 0.00 0.00 0.00 97 1004.5
20260831045530 60 148 0.0 0.0 0.00 0.00 0.00 97 1004.4
20260831045039 61 148 0.0 0.0 0.00 0.00 0.00 97 1004.3
20260831044530 61 148 0.0 0.0 0.00 0.00 0.00 97 1004.4
20260831044122 61 148 0.0 0.0 0.00 0.00 0.00 97 1004.4
20260831043548 61 148 0.0 0.0 0.00 0.00 0.00 97 1004.4
20260831043030 61 148 0.0 0.0 0.00 0.00 0.00 97 1004.3
20260831042556 61 148 0.0 0.0 0.00 0.00 0.00 97 1004.4
20260831042107 61 148 0.0 0.0 0.00 0.00 0.00 97 1004.5
20260831041520 61 148 0.0 0.0 0.00 0.00 0.00 97 1004.4
20260831041029 60 148 0.0 0.0 0.00 0.00 0.00 96 1004.4
20260831040540 60 148 0.0 0.0 0.00 0.00 0.00 96 1004.4
20260831040039 60 148 0.0 0.0 0.00 0.00 0.00 95 1004.3
20260831035529 61 148 0.0 0.0 0.00 0.00 0.00 95 1004.3
20260831035037 61 148 0.0 0.0 0.00 0.00 0.00 95 1004.3
20260831034546 61 148 0.0 0.0 0.00 0.00 0.00 95 1004.3
20260831034027 61 148 0.0 0.0 0.00 0.00 0.00 95 1004.3
20260831033538 61 148 0.0 0.0 0.00 0.00 0.00 94 1004.3
20260831033046 62 148 0.0 0.0 0.00 0.00 0.00 94 1004.2
20260831032523 62 148 0.0 0.0 0.00 0.00 0.00 94 1004.2
20260831032028 62 148 0.0 0.0 0.00 0.00 0.00 93 1004.3
20260831031600 63 148 0.0 0.0 0.00 0.00 0.00 93 1004.3
20260831031110 63 148 0.0 0.0 0.00 0.00 0.00 93 1004.3
20260831030525 63 148 0.0 0.0 0.00 0.00 0.00 93 1004.3
20260831030049 64 148 0.0 0.0 0.00 0.00 0.00 92 1004.2
20260831025557 64 148 0.0 0.0 0.00 0.00 0.00 92 1004.2
20260831025024 64 173 0.0 0.0 0.00 0.00 0.00 91 1004.1
20260831024534 65 173 0.0 0.0 0.00 0.00 0.00 91 1004.1
20260831024034 65 173 0.0 1.0 0.00 0.00 0.00 91 1003.9
20260831023522 65 173 0.0 1.0 0.00 0.00 0.00 90 1003.9
20260831023030 66 243 0.0 1.0 0.00 0.00 0.00 90 1004.0
20260831022553 66 243 0.0 2.0 0.00 0.00 0.00 90 1004.0
20260831022104 66 179 0.0 2.0 0.00 0.00 0.00 90 1003.9
20260831021523 66 127 0.0 3.0 0.00 0.00 0.00 90 1004.0
20260831021032 66 127 1.0 3.0 0.00 0.00 0.00 91 1003.9
20260831020544 66 107 0.0 1.0 0.00 0.00 0.00 90 1004.0
20260831020022 66 107 0.0 2.0 0.00 0.00 0.00 90 1003.9
20260831015531 66 106 0.0 2.0 0.00 0.00 0.00 90 1003.8
20260831015038 66 217 0.0 3.0 0.00 0.00 0.00 90 1003.8
20260831014526 65 242 1.0 3.0 0.00 0.00 0.00 90 1003.7
20260831014035 66 98 0.0 1.0 0.00 0.00 0.00 90 1003.8
20260831013534 66 98 0.0 2.0 0.00 0.00 0.00 90 1003.7
20260831013022 66 97 0.0 2.0 0.00 0.00 0.00 91 1003.7
20260831012532 65 90 0.0 1.0 0.00 0.00 0.00 91 1003.6
20260831012027 65 345 0.0 1.0 0.00 0.00 0.00 91 1003.5
20260831011534 65 238 0.0 1.0 0.00 0.00 0.00 92 1003.5
20260831011041 65 238 0.0 0.0 0.00 0.00 0.00 92 1003.5
20260831010529 65 238 0.0 2.0 0.00 0.00 0.00 92 1003.4
20260831010036 65 238 0.0 2.0 0.00 0.00 0.00 93 1003.3
20260831005537 65 252 0.0 0.0 0.00 0.00 0.00 92 1003.3
20260831005026 65 252 0.0 0.0 0.00 0.00 0.00 92 1003.3
20260831004524 65 252 0.0 0.0 0.00 0.00 0.00 91 1003.3
20260831004033 65 252 0.0 0.0 0.00 0.00 0.00 91 1003.1